| time (UTC) | temp F | wind direction | speed MPH | gust MPH | rain 1hr in | rain 24hr in | rain mn in | humidity % | barometer mb |
| 20260904044503 | 63 | 0 | 1.0 | 0.0 | 0.00 | 0.00 | 0.00 | 39 | 1023.0 |
| 20260904041503 | 66 | 340 | 5.0 | 0.0 | 0.00 | 0.00 | 0.00 | 34 | 1024.0 |
| 20260904040004 | 66 | 360 | 5.0 | 0.0 | 0.00 | 0.00 | 0.00 | 34 | 1024.0 |
| 20260904034503 | 66 | 360 | 5.0 | 0.0 | 0.00 | 0.00 | 0.00 | 34 | 1024.0 |
| 20260904033004 | 66 | 350 | 2.0 | 0.0 | 0.00 | 0.00 | 0.00 | 34 | 1024.0 |
| 20260904030004 | 68 | 360 | 3.0 | 0.0 | 0.00 | 0.00 | 0.00 | 32 | 1024.0 |
| 20260904024503 | 68 | 360 | 3.0 | 0.0 | 0.00 | 0.00 | 0.00 | 32 | 1024.0 |
| 20260904021503 | 70 | 360 | 5.0 | 0.0 | 0.00 | 0.00 | 0.00 | 30 | 1024.0 |
| 20260904020003 | 70 | 10 | 3.0 | 0.0 | 0.00 | 0.00 | 0.00 | 32 | 1024.0 |
| 20260904014504 | 70 | 10 | 3.0 | 0.0 | 0.00 | 0.00 | 0.00 | 32 | 1024.0 |
| 20260904011503 | 70 | 0 | 1.0 | 0.0 | 0.00 | 0.00 | 0.00 | 30 | 1024.0 |
| 20260904003003 | 73 | 350 | 5.0 | 0.0 | 0.00 | 0.00 | 0.00 | 28 | 1024.0 |
| 20260904001504 | 73 | 350 | 5.0 | 0.0 | 0.00 | 0.00 | 0.00 | 28 | 1024.0 |
| 20260904000003 | 75 | 360 | 3.0 | 0.0 | 0.00 | 0.00 | 0.00 | 27 | 1024.0 |
| 20260903234503 | 75 | 360 | 3.0 | 0.0 | 0.00 | 0.00 | 0.00 | 27 | 1024.0 |
| 20260903233004 | 77 | 0 | 2.0 | 0.0 | 0.00 | 0.00 | 0.00 | 25 | 1024.0 |
| 20260903231503 | 77 | 0 | 2.0 | 0.0 | 0.00 | 0.00 | 0.00 | 25 | 1024.0 |
| 20260903223004 | 82 | 330 | 3.0 | 0.0 | 0.00 | 0.00 | 0.00 | 20 | 1023.0 |
| 20260903214503 | 82 | 330 | 5.0 | 0.0 | 0.00 | 0.00 | 0.00 | 21 | 1023.0 |
| 20260903211503 | 84 | 350 | 3.0 | 0.0 | 0.00 | 0.00 | 0.00 | 20 | 1023.0 |
| 20260903210004 | 88 | 350 | 5.0 | 0.0 | 0.00 | 0.00 | 0.00 | 18 | 1023.0 |
| 20260903204503 | 88 | 350 | 5.0 | 0.0 | 0.00 | 0.00 | 0.00 | 18 | 1023.0 |
| 20260903200005 | 95 | 200 | 5.0 | 0.0 | 0.00 | 0.00 | 0.00 | 14 | 1022.0 |
| 20260903194503 | 95 | 200 | 5.0 | 0.0 | 0.00 | 0.00 | 0.00 | 14 | 1022.0 |
| 20260903191504 | 97 | 190 | 6.0 | 0.0 | 0.00 | 0.00 | 0.00 | 12 | 1022.0 |
| 20260903190004 | 99 | 200 | 7.0 | 0.0 | 0.00 | 0.00 | 0.00 | 12 | 1022.0 |
| 20260903184503 | 99 | 200 | 7.0 | 0.0 | 0.00 | 0.00 | 0.00 | 12 | 1022.0 |
| 20260903183004 | 99 | 180 | 8.0 | 0.0 | 0.00 | 0.00 | 0.00 | 12 | 1022.0 |
| 20260903181503 | 99 | 180 | 8.0 | 0.0 | 0.00 | 0.00 | 0.00 | 12 | 1022.0 |
| 20260903174503 | 100 | 200 | 7.0 | 0.0 | 0.00 | 0.00 | 0.00 | 10 | 1022.0 |
| 20260903170003 | 100 | 230 | 8.0 | 0.0 | 0.00 | 0.00 | 0.00 | 11 | 1022.0 |
| 20260903164503 | 100 | 230 | 8.0 | 0.0 | 0.00 | 0.00 | 0.00 | 11 | 1022.0 |
| 20260903161503 | 100 | 220 | 8.0 | 0.0 | 0.00 | 0.00 | 0.00 | 11 | 1022.0 |
| 20260903160004 | 100 | 220 | 8.0 | 0.0 | 0.00 | 0.00 | 0.00 | 11 | 1022.0 |
| 20260903154503 | 100 | 220 | 8.0 | 0.0 | 0.00 | 0.00 | 0.00 | 11 | 1022.0 |
| 20260903153004 | 100 | 0 | 8.0 | 0.0 | 0.00 | 0.00 | 0.00 | 11 | 1022.0 |
| 20260903144503 | 99 | 250 | 8.0 | 0.0 | 0.00 | 0.00 | 0.00 | 12 | 1023.0 |
| 20260903143004 | 99 | 210 | 1.0 | 0.0 | 0.00 | 0.00 | 0.00 | 12 | 1023.0 |
| 20260903140004 | 99 | 220 | 1.0 | 0.0 | 0.00 | 0.00 | 0.00 | 14 | 1023.0 |
| 20260903133003 | 97 | 240 | 12.0 | 0.0 | 0.00 | 0.00 | 0.00 | 15 | 1024.0 |
| 20260903131503 | 97 | 240 | 12.0 | 0.0 | 0.00 | 0.00 | 0.00 | 15 | 1024.0 |
| 20260903130003 | 95 | 200 | 6.0 | 0.0 | 0.00 | 0.00 | 0.00 | 17 | 1024.0 |
| 20260903124504 | 95 | 200 | 6.0 | 0.0 | 0.00 | 0.00 | 0.00 | 17 | 1024.0 |
| 20260903123003 | 93 | 230 | 2.0 | 0.0 | 0.00 | 0.00 | 0.00 | 24 | 1024.0 |
| 20260903121503 | 93 | 230 | 2.0 | 0.0 | 0.00 | 0.00 | 0.00 | 24 | 1024.0 |
| 20260903114504 | 90 | 210 | 2.0 | 0.0 | 0.00 | 0.00 | 0.00 | 25 | 1024.0 |
| 20260903111503 | 88 | 220 | 3.0 | 0.0 | 0.00 | 0.00 | 0.00 | 31 | 1025.0 |
| 20260903110004 | 84 | 300 | 2.0 | 0.0 | 0.00 | 0.00 | 0.00 | 35 | 1025.0 |
| 20260903103003 | 82 | 0 | 3.0 | 0.0 | 0.00 | 0.00 | 0.00 | 34 | 1025.0 |
| 20260903101504 | 82 | 0 | 3.0 | 0.0 | 0.00 | 0.00 | 0.00 | 34 | 1025.0 |
| 20260903094504 | 79 | 280 | 3.0 | 0.0 | 0.00 | 0.00 | 0.00 | 36 | 1025.0 |
| 20260903093003 | 77 | 320 | 3.0 | 0.0 | 0.00 | 0.00 | 0.00 | 33 | 1025.0 |
| 20260903084503 | 73 | 0 | 2.0 | 0.0 | 0.00 | 0.00 | 0.00 | 33 | 1025.0 |
| 20260903083004 | 70 | 340 | 3.0 | 0.0 | 0.00 | 0.00 | 0.00 | 37 | 1025.0 |
| 20260903081503 | 70 | 340 | 3.0 | 0.0 | 0.00 | 0.00 | 0.00 | 37 | 1025.0 |
| 20260903080004 | 66 | 0 | 2.0 | 0.0 | 0.00 | 0.00 | 0.00 | 39 | 1025.0 |
| 20260903073003 | 64 | 350 | 3.0 | 0.0 | 0.00 | 0.00 | 0.00 | 42 | 1024.0 |
| 20260903070003 | 64 | 0 | 2.0 | 0.0 | 0.00 | 0.00 | 0.00 | 42 | 1024.0 |
| 20260903054504 | 64 | 350 | 3.0 | 0.0 | 0.00 | 0.00 | 0.00 | 42 | 1023.0 |